TA2CD-18 Weather Reports


Display with metric or nautical units.
time (UTC)temp
F
wind
direction
speed
MPH
gust
MPH
rain 1hr
in
rain 24hr
in
rain mn
in
humidity
%
barometer
mb
20260902100002 87 0 0.0 0.0 0.00 0.00 0.00 38 1010.7
20260902093004 87 0 0.0 0.0 0.00 0.00 0.00 39 1010.9
20260902090005 86 0 0.0 0.0 0.00 0.00 0.00 40 1011.2
20260902083004 84 0 0.0 0.0 0.00 0.00 0.00 45 1011.2
20260902080002 83 0 0.0 0.0 0.00 0.00 0.00 47 1011.4
20260902073002 82 0 0.0 0.0 0.00 0.00 0.00 52 1011.4
20260902070005 80 0 0.0 0.0 0.00 0.00 0.00 58 1011.4
20260902063003 78 0 0.0 0.0 0.00 0.00 0.00 62 1011.2
20260902060003 76 0 0.0 0.0 0.00 0.00 0.00 66 1011.2
20260902053003 73 0 0.0 0.0 0.00 0.00 0.00 68 1011.2
20260902050007 71 0 0.0 0.0 0.00 0.00 0.00 70 1011.0
20260902043002 70 0 0.0 0.0 0.00 0.00 0.00 71 1011.0
20260902040004 69 0 0.0 0.0 0.00 0.00 0.00 72 1010.9
20260902033002 69 0 0.0 0.0 0.00 0.00 0.00 72 1010.7
20260902030004 69 0 0.0 0.0 0.00 0.00 0.00 71 1010.4
20260902023002 70 0 0.0 0.0 0.00 0.00 0.00 70 1010.5
20260902020003 70 0 0.0 0.0 0.00 0.00 0.00 70 1010.2
20260902013003 71 0 0.0 0.0 0.00 0.00 0.00 70 1010.1
20260902010002 71 0 0.0 0.0 0.00 0.00 0.00 69 1010.0
20260902003002 71 0 0.0 0.0 0.00 0.00 0.00 69 1010.0
20260902000002 71 0 0.0 0.0 0.00 0.00 0.00 68 1009.9
20260901233004 72 0 0.0 0.0 0.00 0.00 0.00 68 1009.8
20260901230004 72 0 0.0 0.0 0.00 0.00 0.00 68 1009.8
20260901223006 72 0 0.0 0.0 0.00 0.00 0.00 68 1010.0
20260901220004 72 0 0.0 0.0 0.00 0.00 0.00 67 1009.9
20260901213002 73 0 0.0 0.0 0.00 0.00 0.00 66 1009.9
20260901210003 74 0 0.0 0.0 0.00 0.00 0.00 65 1009.8
20260901203005 74 0 0.0 0.0 0.00 0.00 0.00 63 1009.7
20260901200003 75 0 0.0 0.0 0.00 0.00 0.00 62 1009.6
20260901193003 75 0 0.0 0.0 0.00 0.00 0.00 60 1009.8
20260901190004 76 0 0.0 0.0 0.00 0.00 0.00 60 1009.8
20260901183002 76 0 0.0 0.0 0.00 0.00 0.00 58 1009.6
20260901180003 77 0 0.0 0.0 0.00 0.00 0.00 55 1009.2
20260901173003 78 0 0.0 0.0 0.00 0.00 0.00 51 1009.0
20260901170003 79 0 0.0 0.0 0.00 0.00 0.00 47 1008.5
20260901163002 81 0 0.0 0.0 0.00 0.00 0.00 44 1008.4
20260901160003 83 0 0.0 0.0 0.00 0.00 0.00 42 1008.4
20260901153002 85 0 0.0 0.0 0.00 0.00 0.00 40 1008.4
20260901150002 89 0 0.0 0.0 0.00 0.00 0.00 35 1008.3
20260901143003 98 0 0.0 0.0 0.00 0.00 0.00 28 1008.0
20260901140002 99 0 0.0 0.0 0.00 0.00 0.00 28 1008.0
20260901134500 101 0 0.0 0.0 0.00 0.00 0.00 27 1008.0